Regional Weather Roundup
Issued by NWS

Home | Current Version | Previous Version | Graphics & Text | Print | Product List | Glossary On
Versions: 1 2 3 4 5 6 7 8 9 10 11 12 13 14 15 16 17 18 19 20 21 22 23 24 25 26 27 28 29 30 31 32 33 34 35 36 37 38 39 40 41 42 43 44 45 46 47 48 49 50
000
ASUS45 KCYS 292310
RWRWY

WYOMING REGIONAL WEATHER ROUNDUP
NATIONAL WEATHER SERVICE CHEYENNE WY
500 PM MDT MON SEP 29 2014

NOTE:  "FAIR" INDICATES FEW OR NO CLOUDS BELOW 12,000 FEET
WITH NO SIGNIFICANT WEATHER AND/OR OBSTRUCTIONS TO VISIBILITY.

WYZ001-300000-
YELLOWSTONE NATIONAL PARK

CITY           SKY/WX    TMP DP  RH WIND       PRES   REMARKS
LK YELLOWSTONE   N/A     46  35  65 W8        30.02R
W YELLOWSTONE  NOT AVBL

$$
WYZ002>013-054>058-071-098>099-300000-
NORTHERN WYOMING

CITY           SKY/WX    TMP DP  RH WIND       PRES   REMARKS
JACKSON        PTSUNNY   52  39  62 S10       29.99F
CODY           PTSUNNY   55  48  76 SW6       29.89R THUNDER
GREYBULL       MOSUNNY   66  47  50 S7        29.82F
WORLAND        MOSUNNY   66  47  50 NE6       29.81F
SHERIDAN       PTSUNNY   62  48  60 N5        29.83F
BUFFALO        MOSUNNY   63  47  55 S15       29.86F
GILLETTE       MOSUNNY   63  49  60 SE18G26   29.86F
HULETT         MOCLDY    61  54  77 E5        29.90
NEWCASTLE      CLOUDY    55  50  82 SE8       29.92

$$
WYZ014>020-022>026-101>103-300000-
CENTRAL WYOMING

CITY           SKY/WX    TMP DP  RH WIND       PRES   REMARKS
BIG PINEY      CLOUDY    53  36  52 N10       29.99F
PINEDALE       PTCLDY    48  39  71 NW3       30.00F
DUBOIS         MOCLDY    46  36  66 N12G20    29.96S
LANDER         MOSUNNY   64  34  32 SW9       29.85F
RIVERTON       MOSUNNY   62  42  47 NW3       29.87F
CASPER         CLOUDY    61  40  45 SW3       29.92F
DOUGLAS        CLOUDY    62  49  62 SE9       29.93R

$$
WYZ021-027>030-104>119-300000-
SOUTHERN WYOMING

CITY           SKY/WX    TMP DP  RH WIND       PRES   REMARKS
EVANSTON       CLOUDY    51  37  58 VRB3      30.02S
KEMMERER       PTCLDY    50  39  66 W9        30.02F
FORT BRIDGER   MOCLDY    54  41  60 NW16      30.04S
ROCK SPRINGS   PTSUNNY   50  38  63 W12       29.98F
DIXON          FAIR      55  40  57 W6        30.01F
RAWLINS        CLOUDY    53  36  52 SW12      29.99R
SARATOGA         N/A     52  36  54 W6        30.00F
LARAMIE        RAIN      44  43  96 N9        30.01S FOG
CHEYENNE       TSTM      54  48  80 E9        29.94R
TORRINGTON     CLOUDY    62  53  72 E5        29.87F
PINE BLUFFS    CLOUDY    59  54  82 N10       29.86F

$$



USA.gov is the U.S. government's official web portal to all federal, state and local government web resources and services.